Hamilton Island Airport, Australia

9:30 AM AEST on July 25, 2016 (GMT +1000)
Hamilton Island

Weather History for YBHM - May, 2014

Change the Weather History Date:

Tuesday, May 13, 2014

  Actual Average Record
Temperature  
Mean Temperature 71 °F -  
Max Temperature 76 °F - - ()
Min Temperature 66 °F - - ()
Cooling Degree Days 6    
Growing Degree Days 21 (Base 50)    
Moisture  
Dew Point 67 °F    
Average Humidity 85    
Maximum Humidity 100    
Minimum Humidity 65    
Precipitation  
Precipitation 1.69 in - - ()
Sea Level Pressure  
Sea Level Pressure 30.07 in    
Wind  
Wind Speed 25 mph ()    
Max Wind Speed 50 mph    
Max Gust Speed 59 mph    
Visibility 5.3 miles    
Events      
T = Trace of Precipitation, MM = Missing Value Source: Averaged Metar Reports

Daily Weather History Graph

Daily Weather History Graph

Search for Another Location

Airport or City:

Trip Planner

Search our weather history database for the weather conditions in past years. The results will help you decide how hot, cold, wet, or windy it might be!

Date:

Astronomy

May. 13, 2014 Rise Set
Actual Time 6:24 AM AEST 5:35 PM AEST
Civil Twilight 6:01 AM AEST 5:59 PM AEST
Nautical Twilight 5:35 AM AEST 6:25 PM AEST
Astronomical Twilight 5:08 AM AEST 6:52 PM AEST
Moon 4:26 PM AEST (5/13) 4:35 AM AEST (5/13)
Length of Visible Light 11h 57m
Length of Day
11h 11m
Waxing Gibbous, 96% of the Moon is Illuminated
May 13
Waxing Gibbous
May 15
Full
May 21
Last Quarter
May 29
New
Jun 6
First Quarter

Hourly Weather History & Observations

Time (AEST) Temp. Dew Point Humidity Pressure Visibility Wind Dir Wind Speed Gust Speed Precip Events Conditions
12:00 AM 72 °F 68 °F 84% 30.12 in - SE 24.2 mph - -   Overcast
12:00 AM 71.6 °F 68.0 °F 88% 30.12 in 6.2 mi SE 24.2 mph - N/A   Overcast
12:30 AM 73.4 °F 66.2 °F 78% 30.09 in 6.2 mi ESE 26.5 mph - N/A   Overcast
1:00 AM 73.4 °F 66.2 °F 78% 30.06 in 6.2 mi ESE 26.5 mph - N/A   Mostly Cloudy
1:30 AM 75.2 °F 64.4 °F 69% 30.06 in 6.2 mi ESE 28.8 mph - N/A   Mostly Cloudy
2:00 AM 75.2 °F 64.4 °F 69% 30.06 in - ESE 25.3 mph - N/A   Scattered Clouds
2:30 AM 73.4 °F 64.4 °F 73% 30.06 in 6.2 mi ESE 24.2 mph - N/A   Scattered Clouds
3:00 AM 75 °F 65 °F 65% 30.06 in - ESE 26.5 mph - -  
3:00 AM 75.2 °F 66.2 °F 73% 30.06 in 6.2 mi ESE 26.5 mph - N/A   Mostly Cloudy
3:30 AM 75.2 °F 66.2 °F 73% 30.06 in 6.2 mi ESE 24.2 mph - N/A   Scattered Clouds
4:00 AM 75.2 °F 66.2 °F 73% 30.06 in 6.2 mi ESE 25.3 mph - N/A   Mostly Cloudy
4:30 AM 75.2 °F 64.4 °F 69% 30.06 in 6.2 mi ESE 25.3 mph - N/A   Mostly Cloudy
4:46 AM 73.4 °F 66.2 °F 78% 30.06 in 6.2 mi ESE 25.3 mph 38.0 mph N/A   Mostly Cloudy
5:00 AM 75.2 °F 64.4 °F 69% 30.06 in 6.2 mi ESE 26.5 mph - N/A   Mostly Cloudy
5:30 AM 75.2 °F 64.4 °F 69% 30.06 in 6.2 mi ESE 25.3 mph - N/A   Mostly Cloudy
6:00 AM 74 °F 65 °F 67% 30.06 in - ESE 26.5 mph - -  
6:00 AM 75.2 °F 66.2 °F 73% 30.06 in 6.2 mi ESE 26.5 mph - N/A   Scattered Clouds
6:30 AM 75.2 °F 66.2 °F 73% 30.09 in 6.2 mi ESE 23.0 mph - N/A   Mostly Cloudy
7:00 AM 75.2 °F 66.2 °F 73% 30.09 in 6.2 mi ESE 24.2 mph - N/A   Mostly Cloudy
7:30 AM 75.2 °F 66.2 °F 73% 30.09 in 6.2 mi SE 24.2 mph - N/A   Scattered Clouds
8:00 AM 75.2 °F 66.2 °F 73% 30.09 in 6.2 mi SE 25.3 mph - N/A   Scattered Clouds
8:30 AM 73.4 °F 68.0 °F 83% 30.12 in - SSE 23.0 mph - N/A   Mostly Cloudy
9:00 AM 73 °F 68 °F 78% 30.12 in - SSE 21.9 mph - -   Overcast
9:00 AM 73.4 °F 68.0 °F 83% 30.12 in 6.2 mi SSE 21.9 mph - N/A   Mostly Cloudy
9:30 AM 73.4 °F 68.0 °F 83% 30.12 in 6.2 mi SSE 21.9 mph - N/A   Mostly Cloudy
10:00 AM 73.4 °F 69.8 °F 88% 30.12 in 6.2 mi SSE 18.4 mph - N/A   Overcast
10:07 AM 73.4 °F 68.0 °F 83% 30.09 in 6.2 mi ESE 26.5 mph - N/A   Overcast
10:30 AM 75.2 °F 68.0 °F 78% 30.12 in 6.2 mi SE 24.2 mph - N/A   Overcast
11:00 AM 73.4 °F 68.0 °F 83% 30.12 in 6.2 mi SE 24.2 mph - N/A   Overcast
11:30 AM 73.4 °F 69.8 °F 88% 30.09 in 6.2 mi SE 23.0 mph - N/A   Overcast
12:00 PM 76 °F 68 °F 71% 30.09 in - SE 25.3 mph - -   Overcast
12:00 PM 75.2 °F 68.0 °F 78% 30.06 in 6.2 mi SE 25.3 mph - N/A   Mostly Cloudy
12:30 PM 75.2 °F 68.0 °F 78% 30.06 in 6.2 mi SE 23.0 mph - N/A   Unknown
1:00 PM 75.2 °F 68.0 °F 78% 30.06 in 6.2 mi ESE 23.0 mph - N/A   Mostly Cloudy
1:30 PM 75.2 °F 69.8 °F 83% 30.06 in - SE 26.5 mph - N/A   Mostly Cloudy
1:52 PM 75.2 °F 68.0 °F 78% 30.04 in 6.2 mi SE 26.5 mph - N/A   Mostly Cloudy
2:00 PM 73.4 °F 68.0 °F 83% 30.04 in 6.2 mi SE 27.6 mph - N/A   Mostly Cloudy
2:02 PM 73.4 °F 68.0 °F 83% 30.04 in 6.2 mi SE 28.8 mph - N/A   Mostly Cloudy
2:30 PM 73.4 °F 68.0 °F 83% 30.04 in 6.2 mi SE 26.5 mph - N/A   Overcast
3:00 PM 73 °F 68 °F 80% 30.03 in - SSE 27.6 mph - -   Overcast
3:02 PM 73.4 °F 68.0 °F 83% 30.01 in 6.2 mi SSE 27.6 mph - N/A   Overcast
3:13 PM 73.4 °F 68.0 °F 83% 30.01 in 6.2 mi SSE 27.6 mph - N/A   Overcast
3:38 PM 71.6 °F 68.0 °F 88% 30.01 in 6.2 mi SE 27.6 mph - N/A   Overcast
3:40 PM 71.6 °F 68.0 °F 88% 30.01 in 5.0 mi ESE 28.8 mph - N/A   Overcast
3:42 PM 69.8 °F 68.0 °F 94% 30.01 in 3.7 mi ESE 28.8 mph - N/A   Overcast
4:00 PM 71.6 °F 69.8 °F 94% 30.04 in 3.7 mi ESE 20.7 mph - N/A   Overcast
4:03 PM 69.8 °F 68.0 °F 94% 30.01 in 3.7 mi ESE 20.7 mph 36.8 mph N/A   Overcast
4:04 PM 69.8 °F 66.2 °F 88% 30.01 in 3.7 mi East 34.5 mph - N/A   Overcast
4:12 PM 68.0 °F 66.2 °F 94% 30.04 in 1.5 mi East 28.8 mph 40.3 mph N/A   Overcast
4:24 PM 69.8 °F 68.0 °F 94% 30.04 in 4.3 mi ESE 16.1 mph - N/A   Overcast
4:28 PM 69.8 °F 68.0 °F 94% 30.04 in 6.2 mi ESE 17.3 mph - N/A   Overcast
4:30 PM 71.6 °F 69.8 °F 94% 30.04 in 6.2 mi ESE 16.1 mph - N/A   Overcast
4:33 PM 71.6 °F 69.8 °F 94% 30.04 in 6.2 mi SE 16.1 mph - N/A   Overcast
4:36 PM 69.8 °F 68.0 °F 94% 30.04 in 6.2 mi ESE 19.6 mph 34.5 mph N/A   Overcast
4:39 PM 71.6 °F 69.8 °F 94% 30.04 in 3.7 mi ESE 21.9 mph 34.5 mph N/A   Overcast
4:49 PM 68.0 °F 68.0 °F 100% 30.06 in 1.4 mi East 24.2 mph - N/A   Overcast
5:00 PM 69.8 °F 68.0 °F 94% 30.04 in 1.0 mi East 25.3 mph - N/A   Overcast
5:07 PM 69.8 °F 69.8 °F 100% 30.06 in 1.8 mi SE 28.8 mph - N/A   Overcast
5:30 PM 69.8 °F 68.0 °F 94% 30.06 in 0.9 mi ESE 26.5 mph - N/A   Overcast
5:46 PM 69.8 °F 69.8 °F 100% 30.06 in 2.8 mi SE 21.9 mph 34.5 mph N/A   Overcast
6:00 PM 70 °F 69 °F 96% 30.07 in 3 mi SE 29.9 mph - -   Overcast
6:00 PM 69.8 °F 69.8 °F 100% 30.06 in 3.1 mi SE 29.9 mph - N/A   Overcast
6:13 PM 69.8 °F 69.8 °F 100% 30.09 in 6.2 mi SE 26.5 mph - N/A   Overcast
6:30 PM 69.8 °F 68.0 °F 94% 30.06 in 6.2 mi SSE 28.8 mph - N/A   Overcast
6:40 PM 69.8 °F 68.0 °F 94% 30.09 in 4.3 mi SSE 28.8 mph - N/A   Overcast
6:41 PM 69.8 °F 68.0 °F 94% 30.09 in 3.7 mi SSE 28.8 mph - N/A   Overcast
7:00 PM 69.8 °F 68.0 °F 94% 30.09 in 3.1 mi SE 23.0 mph - N/A   Overcast
7:29 PM 68.0 °F 66.2 °F 94% 30.09 in 3.1 mi SE 33.4 mph - N/A   Overcast
7:30 PM 68.0 °F 66.2 °F 94% 30.09 in 3.1 mi SE 34.5 mph - N/A   Overcast
7:46 PM 68.0 °F 66.2 °F 94% 30.04 in 5.6 mi ESE 39.1 mph - N/A   Overcast
7:51 PM 68.0 °F 68.0 °F 100% 30.01 in 5.0 mi ESE 42.6 mph 54.1 mph N/A   Overcast
7:52 PM 66.2 °F 66.2 °F 100% 29.98 in 5.0 mi ESE 44.9 mph 58.7 mph N/A   Overcast
7:57 PM 68.0 °F 66.2 °F 94% 30.01 in 5.6 mi ESE 49.5 mph - N/A   Overcast
8:02 PM 69.8 °F 68.0 °F 94% 30.04 in 6.2 mi ESE 46.0 mph 57.5 mph N/A   Mostly Cloudy
8:13 PM 69.8 °F 68.0 °F 94% 30.06 in 6.2 mi ESE 31.1 mph 47.2 mph N/A   Mostly Cloudy
8:34 PM 69.8 °F 66.2 °F 88% 30.09 in 6.2 mi SE 32.2 mph 43.7 mph N/A   Scattered Clouds
8:41 PM 69.8 °F 68.0 °F 94% 30.09 in 6.2 mi SE 27.6 mph - N/A   Mostly Cloudy
8:46 PM 69.8 °F 68.0 °F 94% 30.09 in 6.2 mi SE 27.6 mph 39.1 mph N/A   Mostly Cloudy
9:00 PM 70 °F 66 °F 84% 30.11 in - ESE 26.5 mph - -   Overcast
9:00 PM 69.8 °F 66.2 °F 88% 30.09 in 6.2 mi ESE 26.5 mph - N/A   Overcast
9:05 PM 71.6 °F 66.2 °F 83% 30.12 in 6.2 mi ESE 25.3 mph - N/A   Overcast
9:15 PM 71.6 °F 66.2 °F 83% 30.09 in 6.2 mi ESE 32.2 mph - N/A   Overcast
9:26 PM 71.6 °F 66.2 °F 83% 30.09 in 6.2 mi ESE 32.2 mph - N/A   Overcast
9:30 PM 71.6 °F 68.0 °F 88% 30.09 in 6.2 mi ESE 29.9 mph - N/A   Overcast
10:00 PM 71.6 °F 66.2 °F 83% 30.09 in 6.2 mi ESE 33.4 mph - N/A   Overcast
11:00 PM 73.4 °F 64.4 °F 73% 30.09 in 6.2 mi ESE 27.6 mph - N/A   Unknown
11:30 PM 73.4 °F 64.4 °F 73% 30.09 in 6.2 mi ESE 27.6 mph - N/A   Mostly Cloudy